• In Denmark
  • List of Countries
  • For 7 days
  • Water Temperature
  • Satellite Maps
  • Weather Map
  • Weather Widgets
  • user-avatar
    Login

    Hourly Weather Al-Jahra

    Today, 22 February, Thursday

    Time Temperature Precipitation Wind Pressure Humidity
    00:00 +20°C° 0 mm 4 mps 752 mmHg 38%
    01:00 +20°C° 0.1 mm 3 mps 752 mmHg 40%
    02:00 +19°C° 0.1 mm 3 mps 752 mmHg 42%
    03:00 +19°C° 0.1 mm 2 mps 752 mmHg 44%
    04:00 +19°C° 0.1 mm 3 mps 752 mmHg 45%
    05:00 +19°C° 0.1 mm 3 mps 752 mmHg 46%
    06:00 +19°C° 0.1 mm 4 mps 752 mmHg 47%
    07:00 +20°C° 0 mm 5 mps 752 mmHg 45%
    08:00 +21°C° 0 mm 5 mps 752 mmHg 42%
    09:00 +22°C° 0 mm 6 mps 752 mmHg 40%
    10:00 +23°C° 0.1 mm 6 mps 752 mmHg 37%
    11:00 +26°C° 0.1 mm 5 mps 752 mmHg 34%
    12:00 +27°C° 0.1 mm 5 mps 752 mmHg 30%
    13:00 +28°C° 0.1 mm 5 mps 751 mmHg 29%
    14:00 +28°C° 0.1 mm 5 mps 751 mmHg 29%
    15:00 +29°C° 0.1 mm 4 mps 751 mmHg 28%
    16:00 +28°C° 0 mm 4 mps 751 mmHg 30%
    17:00 +27°C° 0 mm 4 mps 751 mmHg 32%
    18:00 +26°C° 0 mm 4 mps 751 mmHg 35%
    19:00 +25°C° 0 mm 4 mps 751 mmHg 39%
    20:00 +24°C° 0 mm 3 mps 751 mmHg 43%
    21:00 +22°C° 0 mm 3 mps 752 mmHg 47%
    22:00 +21°C° 0 mm 3 mps 752 mmHg 50%
    23:00 +21°C° 0 mm 3 mps 752 mmHg 52%

    Tomorrow, 23 February, Friday

    Time Temperature Precipitation Wind Pressure Humidity
    00:00 +21°C° 0 mm 3 mps 752 mmHg 55%
    01:00 +20°C° 0 mm 2 mps 752 mmHg 56%
    02:00 +20°C° 0 mm 2 mps 751 mmHg 58%
    03:00 +20°C° 0 mm 2 mps 751 mmHg 59%
    04:00 +19°C° 0 mm 2 mps 751 mmHg 60%
    05:00 +19°C° 0 mm 2 mps 751 mmHg 60%
    06:00 +19°C° 0 mm 2 mps 751 mmHg 61%
    07:00 +20°C° 0 mm 3 mps 752 mmHg 59%
    08:00 +21°C° 0 mm 3 mps 752 mmHg 57%
    09:00 +22°C° 0 mm 4 mps 753 mmHg 54%
    10:00 +24°C° 0 mm 3 mps 753 mmHg 50%
    11:00 +25°C° 0 mm 3 mps 752 mmHg 46%
    12:00 +26°C° 0 mm 3 mps 752 mmHg 42%
    13:00 +26°C° 0 mm 3 mps 752 mmHg 39%
    14:00 +27°C° 0 mm 3 mps 751 mmHg 36%
    15:00 +27°C° 0 mm 4 mps 751 mmHg 33%
    16:00 +26°C° 0 mm 3 mps 751 mmHg 35%
    17:00 +26°C° 0 mm 2 mps 750 mmHg 38%
    18:00 +25°C° 0 mm 1 mps 750 mmHg 41%
    19:00 +24°C° 0 mm 2 mps 751 mmHg 44%
    20:00 +24°C° 0 mm 3 mps 751 mmHg 47%
    21:00 +24°C° 0 mm 3 mps 751 mmHg 51%
    22:00 +22°C° 0 mm 3 mps 751 mmHg 52%
    23:00 +22°C° 0 mm 4 mps 751 mmHg 53%

    Day after tomorrow, 24 February, Saturday

    Time Temperature Precipitation Wind Pressure Humidity
    00:00 +22°C° 0 mm 4 mps 751 mmHg 54%
    01:00 +21°C° 0.6 mm 4 mps 751 mmHg 57%
    02:00 +21°C° 0.6 mm 4 mps 751 mmHg 60%
    03:00 +21°C° 0.6 mm 3 mps 751 mmHg 63%
    04:00 +20°C° 1 mm 4 mps 751 mmHg 65%
    05:00 +20°C° 1 mm 5 mps 751 mmHg 67%
    06:00 +20°C° 1 mm 5 mps 751 mmHg 69%
    07:00 +20°C° 0.2 mm 6 mps 752 mmHg 68%
    08:00 +20°C° 0.2 mm 7 mps 752 mmHg 68%
    09:00 +21°C° 0.2 mm 8 mps 752 mmHg 67%
    10:00 +21°C° 0.6 mm 8 mps 752 mmHg 64%
    11:00 +22°C° 0.6 mm 7 mps 752 mmHg 62%
    12:00 +23°C° 0.6 mm 7 mps 752 mmHg 59%
    13:00 +23°C° 0.5 mm 7 mps 751 mmHg 59%
    14:00 +23°C° 0.5 mm 7 mps 750 mmHg 58%
    15:00 +23°C° 0.5 mm 7 mps 749 mmHg 58%
    16:00 +23°C° 0.2 mm 7 mps 750 mmHg 60%
    17:00 +22°C° 0.2 mm 7 mps 750 mmHg 62%
    18:00 +22°C° 0.2 mm 7 mps 750 mmHg 64%
    19:00 +21°C° 0.7 mm 8 mps 750 mmHg 68%
    20:00 +20°C° 0.7 mm 8 mps 750 mmHg 72%
    21:00 +20°C° 0.7 mm 8 mps 751 mmHg 76%
    22:00 +18°C° 1.3 mm 7 mps 751 mmHg 78%
    23:00 +19°C° 1.3 mm 5 mps 751 mmHg 80%

    25 February, Sunday

    Time Temperature Precipitation Wind Pressure Humidity
    00:00 +19°C° 1.3 mm 4 mps 751 mmHg 82%
    01:00 +19°C° 0.3 mm 3 mps 751 mmHg 83%
    02:00 +18°C° 0.3 mm 3 mps 750 mmHg 84%
    03:00 +18°C° 0.3 mm 2 mps 750 mmHg 85%
    04:00 +18°C° 0.3 mm 2 mps 751 mmHg 85%
    05:00 +18°C° 0.3 mm 2 mps 751 mmHg 84%
    06:00 +18°C° 0.3 mm 3 mps 752 mmHg 83%
    07:00 +19°C° 0 mm 3 mps 752 mmHg 73%
    08:00 +20°C° 0 mm 3 mps 753 mmHg 64%
    09:00 +21°C° 0 mm 3 mps 753 mmHg 55%
    10:00 +23°C° 0 mm 4 mps 753 mmHg 45%
    11:00 +25°C° 0 mm 4 mps 753 mmHg 36%
    12:00 +26°C° 0 mm 5 mps 753 mmHg 27%
    13:00 +27°C° 0 mm 5 mps 753 mmHg 26%
    14:00 +27°C° 0 mm 5 mps 752 mmHg 25%
    15:00 +27°C° 0 mm 4 mps 752 mmHg 24%
    16:00 +26°C° 0 mm 4 mps 752 mmHg 26%
    17:00 +26°C° 0 mm 3 mps 753 mmHg 29%
    18:00 +25°C° 0 mm 2 mps 753 mmHg 31%
    19:00 +24°C° 0 mm 2 mps 753 mmHg 33%
    20:00 +24°C° 0 mm 3 mps 753 mmHg 34%
    21:00 +22°C° 0 mm 3 mps 754 mmHg 36%
    22:00 +22°C° 0 mm 3 mps 753 mmHg 38%
    23:00 +21°C° 0 mm 3 mps 753 mmHg 41%

    26 February, Monday

    Time Temperature Precipitation Wind Pressure Humidity
    00:00 +20°C° 0 mm 3 mps 753 mmHg 43%
    01:00 +20°C° 0 mm 3 mps 753 mmHg 45%
    02:00 +20°C° 0 mm 3 mps 753 mmHg 47%
    03:00 +19°C° 0 mm 3 mps 753 mmHg 49%
    04:00 +19°C° 0 mm 3 mps 753 mmHg 51%
    05:00 +19°C° 0 mm 4 mps 754 mmHg 54%
    06:00 +18°C° 0 mm 4 mps 754 mmHg 57%
    07:00 +20°C° 0 mm 4 mps 754 mmHg 53%
    08:00 +21°C° 0 mm 5 mps 755 mmHg 50%
    09:00 +22°C° 0 mm 6 mps 755 mmHg 46%
    10:00 +23°C° 0 mm 6 mps 754 mmHg 41%
    11:00 +24°C° 0 mm 7 mps 754 mmHg 37%
    12:00 +27°C° 0 mm 7 mps 753 mmHg 32%
    13:00 +27°C° 0 mm 8 mps 752 mmHg 32%
    14:00 +27°C° 0 mm 8 mps 752 mmHg 32%
    15:00 +27°C° 0 mm 9 mps 751 mmHg 32%
    16:00 +26°C° 0 mm 9 mps 751 mmHg 36%
    17:00 +24°C° 0 mm 9 mps 751 mmHg 40%
    18:00 +23°C° 0 mm 9 mps 750 mmHg 45%
    19:00 +22°C° 0.5 mm 9 mps 750 mmHg 49%
    20:00 +21°C° 0.5 mm 9 mps 750 mmHg 54%
    21:00 +21°C° 0.5 mm 9 mps 750 mmHg 58%
    22:00 +19°C° 0.5 mm 9 mps 750 mmHg 61%
    23:00 +20°C° 0.5 mm 8 mps 750 mmHg 63%

    27 February, Tuesday

    Time Temperature Precipitation Wind Pressure Humidity
    00:00 +20°C° 0.5 mm 7 mps 750 mmHg 65%
    01:00 +20°C° 0.1 mm 7 mps 749 mmHg 69%
    02:00 +20°C° 0.1 mm 8 mps 749 mmHg 72%
    03:00 +20°C° 0.1 mm 8 mps 749 mmHg 75%
    04:00 +20°C° 0 mm 7 mps 749 mmHg 77%
    05:00 +20°C° 0 mm 7 mps 749 mmHg 78%
    06:00 +20°C° 0 mm 6 mps 750 mmHg 80%
    07:00 +21°C° 0 mm 5 mps 750 mmHg 74%
    08:00 +22°C° 0 mm 4 mps 751 mmHg 69%
    09:00 +23°C° 0 mm 4 mps 751 mmHg 63%
    10:00 +25°C° 0 mm 4 mps 751 mmHg 56%
    11:00 +27°C° 0 mm 4 mps 750 mmHg 48%
    12:00 +28°C° 0 mm 4 mps 750 mmHg 40%
    13:00 +28°C° 0 mm 4 mps 750 mmHg 37%
    14:00 +29°C° 0 mm 4 mps 750 mmHg 34%
    15:00 +29°C° 0 mm 4 mps 749 mmHg 31%
    16:00 +28°C° 0 mm 4 mps 750 mmHg 33%
    17:00 +28°C° 0 mm 4 mps 750 mmHg 36%
    18:00 +27°C° 0 mm 3 mps 751 mmHg 39%
    19:00 +26°C° 0 mm 3 mps 751 mmHg 41%
    20:00 +25°C° 0 mm 4 mps 752 mmHg 43%
    21:00 +25°C° 0 mm 4 mps 752 mmHg 45%
    22:00 +23°C° 0 mm 4 mps 752 mmHg 46%
    23:00 +23°C° 0 mm 4 mps 752 mmHg 47%
    Show more